Home   Weather   Chemnitz   Past weeks

Flag for Germany Past Weather in Chemnitz, Saxony, Germany — Yesterday and Last 2 Weeks

Now
61 °F

Light rain. Clear.


Feels Like: 61 °F
Forecast: 52 / 62 °F
Wind: 9 mph from Southwest

Location: Dresden-Klotzsche

Current Time: Oct 1, 2016 at 10:38:31 PM

Latest Report: Oct 1, 2016 at 10:20 PM


Visibility: N/A

Pressure: 29.83 "Hg

Humidity: 88%

Dew Point: 57 °F

Location of ChemnitzLocation

Past Weather in Chemnitz — Graph

°F

Chemnitz Temperature Yesterday

Maximum temperature yesterday: 70 °F (at 12:20 PM)
Minimum temperature yesterday: 57 °F (at 11:50 PM)
Average temperature yesterday: 62 °F

High & Low Weather Summary for the Past Weeks

 TemperatureHumidityPressure
High79 °F (Sep 29, 3:20 PM)100% (Sep 17, 1:50 AM)30.33 "Hg (Sep 17, 1:50 AM)
Low43 °F (Sep 22, 5:20 AM)29% (Sep 29, 12:50 PM)29.80 "Hg (Oct 1, 2:20 PM)
Average58 °F78%30.09 "Hg
* Reported Sep 16 9:20 PM — Oct 1 9:20 PM, Chemnitz, Weather by CustomWeather, © 2016

Note: Actual official high and low records may vary slightly from our data, if they occured in-between our weather recording intervals... More about our weather records

Advertising

Chemnitz Weather History for the Previous 24 Hours

Scroll right to see more
 ConditionsComfort  
Time TempWeatherWind HumidityBarometerVisibility
9:20 PM
Sat, Oct 1
61 °FLight rain. Partly cloudy.6 mph94%29.83 "HgN/A
8:50 PM61 °FLight rain. Clear.2 mph94%29.83 "HgN/A
8:20 PM61 °FThunderstorms. Partly cloudy.7 mph94%29.83 "HgN/A
7:50 PM63 °FLight rain. Clear.2 mph88%29.80 "HgN/A
7:20 PM64 °FLight rain. Clear.2 mph83%29.80 "HgN/A
6:50 PM64 °FClear.3 mph83%29.80 "Hg10 mi
6:20 PM66 °FSunny.1 mph78%29.80 "Hg10 mi
5:50 PM66 °FSunny.5 mph78%29.80 "Hg10 mi
5:20 PM68 °FPassing clouds.3 mph73%29.80 "HgN/A
4:50 PM68 °FSunny.2 mph69%29.80 "Hg10 mi
4:20 PM68 °FPassing clouds.3 mph69%29.80 "HgN/A
3:50 PM72 °FPassing clouds.3 mph53%29.80 "HgN/A
3:20 PM72 °FPartly sunny.9 mph53%29.80 "HgN/A
2:50 PM72 °FPartly sunny.12 mph53%29.80 "HgN/A
2:20 PM72 °FPartly sunny.12 mph53%29.80 "HgN/A
1:50 PM72 °FSunny.10 mph57%29.83 "Hg10 mi
1:20 PM72 °FPassing clouds.9 mph57%29.83 "HgN/A
12:50 PM70 °FPassing clouds.9 mph57%29.83 "HgN/A
12:20 PM68 °FPassing clouds.8 mph60%29.86 "HgN/A
11:50 AM66 °FPassing clouds.8 mph68%29.86 "HgN/A
11:20 AM64 °FSunny.8 mph73%29.86 "Hg10 mi
10:50 AM61 °FPassing clouds.5 mph83%29.89 "HgN/A
10:20 AM59 °FPassing clouds.3 mph82%29.89 "HgN/A
9:50 AM57 °FPassing clouds.5 mph82%29.89 "HgN/A
9:20 AM57 °FPassing clouds.5 mph82%29.89 "HgN/A
8:50 AM55 °FSunny.6 mph82%29.89 "Hg10 mi
8:20 AM55 °FPassing clouds.6 mph82%29.89 "HgN/A
7:50 AM54 °FSunny.2 mph88%29.89 "Hg10 mi
7:20 AM54 °FSunny.2 mph88%29.92 "Hg10 mi
6:50 AM54 °FClear.3 mph88%29.92 "Hg10 mi
6:20 AM54 °FClear.5 mph88%29.92 "Hg10 mi
5:50 AM52 °FClear.2 mph94%29.92 "Hg10 mi
5:20 AM52 °FClear.3 mph94%29.92 "Hg10 mi
4:50 AM54 °FClear.2 mph94%29.95 "Hg10 mi
4:20 AM54 °FClear.2 mph88%29.95 "Hg10 mi
3:50 AM54 °FClear.1 mph88%29.95 "Hg10 mi
3:20 AM55 °FClear.1 mph88%29.95 "Hg10 mi
2:50 AM55 °FClear.2 mph88%29.98 "Hg10 mi
2:20 AM55 °FClear.1 mph88%29.98 "Hg10 mi
1:50 AM55 °FClear.1 mph88%29.98 "Hg10 mi
1:20 AM55 °FClear.2 mph82%29.98 "Hg10 mi
12:50 AM55 °FClear.2 mph82%29.98 "Hg10 mi
12:20 AM55 °FClear.1 mph82%29.98 "Hg10 mi
11:50 PM
Fri, Sep 30
57 °FClear.2 mph77%29.98 "Hg10 mi
11:20 PM59 °FPassing clouds.3 mph72%29.98 "HgN/A
10:50 PM59 °FPassing clouds.3 mph72%30.01 "HgN/A
10:20 PM59 °FPassing clouds.2 mph77%30.01 "HgN/A
Weather by CustomWeather, © 2016

See weather overviewHow to use our weather pages